sat.trackr.live / text

‹ back to catalog

STARLINK-32518

NORAD 61967 · 2024-210J

PAYLOAD ACTIVE UNKNOWN

§ Identity

Operator
Country
US
Launch date
2024-11-14
Launch site
AFETR
Launch vehicle
Mass (kg)
RCS (m²)

Purposes: comms

External: N2YO · Heavens-Above · Gunter

§ Orbital elements

Epoch: 2026-05-25T04:00:47.382048Z

Period
94.27 min
Inclination
42.9975°
Eccentricity
0.0001153
Mean motion
15.27585553 rev/d
Perigee alt
482.2 km
Apogee alt
483.8 km
Semi-major
6,861.2 km
B*
7.6861e-4
RAAN
101.0257°
Arg perigee
269.4790°
Mean anomaly
90.5930°
Rev number
8,655

§ Raw data

STARLINK-325181 61967U 24210J   26145.16721507  .00020952  00000+0  76861-3 0  99932 61967  42.9975 101.0257 0001153 269.4790  90.5930 15.27585553 86556

JSON: /api/v1/satellites/61967 · /tle

For live sub-satellite position, see the globe view (requires WebGL).

§ Visibility from observer

Set your observer location to see the next 7 days of passes ≥ 10°. The values pass through the URL so the page stays shareable.

No JS? Fill the form by hand. The geolocation button needs JavaScript.